Location: Zagreb
(45.8000°N, 16.0000°E)
Time: 20:15:24
(UTC+01:00)

DX 1 - Pass Details

Date: 03 November 2020
Orbit: 619 x 630 km, 98.5° (Epoch: 01 December)

Event Time Altitude Azimuth Distance (km) Brightness Sun altitude
Rises 17:20:12 0° 30° (NNE) 2,911 ? -7.6°
Reaches altitude 10° 17:23:03 10° 50° (NE) 2,001 ? -8.1°
Maximum altitude 17:25:58 17° 92° (E) 1,564 ? -8.6°
Drops below altitude 10° 17:28:53 10° 135° (SE) 1,994 ? -9.1°
Sets 17:31:43 0° 155° (SSE) 2,897 ? -9.6°
